Regional Weather Roundup
Issued by NWS

Home | Current Version | Previous Version | Text Only | Print | Product List | Glossary On
Versions: 1 2 3 4 5 6 7 8 9 10 11 12 13 14 15 16 17 18 19 20 21 22 23 24 25 26 27 28 29 30 31 32 33 34 35 36 37 38 39 40 41 42 43 44 45 46 47 48 49 50
000
ASUS43 KLMK 211210
RWRKY
KENTUCKY REGIONAL WEATHER ROUNDUP
NATIONAL WEATHER SERVICE LOUISVILLE KY
800 AM EDT SUN SEP 21 2014

NOTE "FAIR" INDICATES FEW OR NO CLOUDS BELOW 12,000 FEET
WITH NO SIGNIFICANT WEATHER AND/OR OBSTRUCTIONS TO VISIBILITY.

KYZ001>023-026-027-061>063-070>075-211300-
WESTERN AND SOUTH CENTRAL KENTUCKY

CITY           SKY/WX    TMP DP  RH WIND       PRES   REMARKS
PADUCAH        MOCLDY    75  67  76 W7        29.94R
HENDERSON      CLOUDY    70  66  88 CALM      29.93R
OWENSBORO      CLOUDY    72  70  94 W13       29.91F
HOPKINSVILLE   PTCLDY    69  69 100 SW10      29.94S
BOWLING GREEN  CLOUDY    70  65  84 SW9       29.94S
GLASGOW        MOCLDY    67  66  98 SW6       29.94F
$$

KYZ024-025-028>034-038-045-046-053-211300-
NORTH CENTRAL KENTUCKY

CITY           SKY/WX    TMP DP  RH WIND       PRES   REMARKS
LOUISVILLE/SDF CLOUDY    74  66  76 W13       29.88R
LOUISVILLE/LOU LGT RAIN  72  67  84 W8        29.89R
FORT KNOX      CLOUDY    72  67  83 SW10      29.90R
$$

KYZ035>037-039>044-047>052-055>060-089>105-211300-
NORTHEAST KENTUCKY

CITY           SKY/WX    TMP DP  RH WIND       PRES   REMARKS
LEXINGTON      MOCLDY    70  65  84 SW9       29.90R
COVINGTON      CLOUDY    72  66  81 W12       29.85R
FRANKFORT      CLOUDY    70  65  84 W5        29.88R
$$

KYZ054-064>069-076>088-106>120-211300-
SOUTHEAST KENTUCKY

CITY           SKY/WX    TMP DP  RH WIND       PRES   REMARKS
JACKSON        CLEAR     64  61  90 VRB3      29.95R
LONDON         CLEAR     64  60  87 CALM      29.98R
SOMERSET       MOCLDY    63  63 100 CALM      29.98R
MIDDLESBORO    FOG       58  58 100 CALM      30.01R VSB<1/4
MONTICELLO     PTSUNNY   68  65  90 SW6       29.99R
$$




USA.gov is the U.S. government's official web portal to all federal, state and local government web resources and services.